"FILENAME","TIMESTAMP","SAMPLE","STATION","LATITUDE","LONGITUDE","SAMPLE_DATE","SAMPLE_TIME","DEPTH","DEPTH_UNITS","CHLOROPHYLLQ","CHLOROPHYLLV","CHLOROPHYLLU","DENSITYQ","DENSITYV","DENSITYU","DOQ","DOV","DOU","SALINITYQ","SALINITYV","SALINITYU","SUSOQ","SUSOV","SUSOU","TEMPQ","TEMPV","TEMPU","PHQ","PHV","PHU","OGQ","OGV","OGU","XMSQ","XMSV","XMSU",
"200411WQPL.csv","2008MAY29155212","1105042768","A1",  32.65933,-117.26200,"20041105",1234,1,"m","",4.2694,"ug/L","",23.8664,"sigma-t","",7.81873,"mg/L","",33.0226,"ppt","",,"","",17.6,"C","",8.138,"pH","",,"","",83,"%",
"200411WQPL.csv","2008MAY29155212","1105042769","A1",  32.65933,-117.26200,"20041105",1234,12,"m","",4.2919,"ug/L","",23.9919,"sigma-t","",7.84221,"mg/L","",33.1125,"ppt","",,"","",17.3,"C","",8.161,"pH","",,"","",87,"%",
"200411WQPL.csv","2008MAY29155212","1105042770","A1",  32.65933,-117.26200,"20041105",1234,18,"m","",2.9141,"ug/L","",24.4197,"sigma-t","",7.14179,"mg/L","",33.2214,"ppt","",,"","",15.8,"C","",8.084,"pH","",,"","",88,"%",
"200411WQPL.csv","2008MAY29155212","1105042771","A6",  32.69267,-117.26967,"20041105",1120,1,"m","",3.8474,"ug/L","",23.8358,"sigma-t","",7.90688,"mg/L","",33.0582,"ppt","",,"","",17.8,"C","",8.156,"pH","",,"","",78,"%",
"200411WQPL.csv","2008MAY29155212","1105042772","A6",  32.69267,-117.26967,"20041105",1120,12,"m","",3.4929,"ug/L","",24.2028,"sigma-t","",7.07917,"mg/L","",33.1528,"ppt","",,"","",16.5,"C","",8.084,"pH","",,"","",83,"%",
"200411WQPL.csv","2008MAY29155212","1105042773","A6",  32.69267,-117.26967,"20041105",1120,18,"m","",2.384,"ug/L","",24.6304,"sigma-t","",6.7643,"mg/L","",33.1727,"ppt","",,"","",14.7,"C","",8.02,"pH","",,"","",75,"%",
"200411WQPL.csv","2008MAY29155212","1105042774","A7",  32.67550,-117.26683,"20041105",1156,1,"m","",4.4558,"ug/L","",23.8184,"sigma-t","",7.95773,"mg/L","",33.0566,"ppt","",,"","",17.9,"C","",8.149,"pH","",,"","",78,"%",
"200411WQPL.csv","2008MAY29155212","1105042775","A7",  32.67550,-117.26683,"20041105",1156,12,"m","",3.0451,"ug/L","",24.2978,"sigma-t","",7.00498,"mg/L","",33.1704,"ppt","",,"","",16.2,"C","",8.061,"pH","",,"","",85,"%",
"200411WQPL.csv","2008MAY29155212","1105042776","A7",  32.67550,-117.26683,"20041105",1156,18,"m","",2.1071,"ug/L","",24.7738,"sigma-t","",6.61242,"mg/L","",33.2059,"ppt","",,"","",14.1,"C","",7.997,"pH","",,"","",80,"%",
"200411WQPL.csv","2008MAY29155212","1105042777","C4",  32.66583,-117.24967,"20041105",1223,1,"m","",5.9011,"ug/L","",23.741,"sigma-t","",7.61215,"mg/L","",32.92,"ppt","",,"","",17.7,"C","",8.093,"pH","",,"","",76,"%",
"200411WQPL.csv","2008MAY29155212","1105042778","C4",  32.66583,-117.24967,"20041105",1223,3,"m","",7.1389,"ug/L","",23.8204,"sigma-t","",7.18603,"mg/L","",32.9778,"ppt","",,"","",17.6,"C","",8.09,"pH","",,"","",76,"%",
"200411WQPL.csv","2008MAY29155212","1105042779","C4",  32.66583,-117.24967,"20041105",1223,9,"m","",3.5148,"ug/L","",24.15,"sigma-t","",6.0719,"mg/L","",33.1137,"ppt","",,"","",16.6,"C","",7.999,"pH","",,"","",61,"%",
"200411WQPL.csv","2008MAY29155212","1105042780","C5",  32.67917,-117.25667,"20041105",1212,1,"m","",3.2109,"ug/L","",23.7733,"sigma-t","",7.2098,"mg/L","",33.0559,"ppt","",,"","",18,"C","",8.015,"pH","",,"","",38,"%",
"200411WQPL.csv","2008MAY29155212","1105042781","C5",  32.67917,-117.25667,"20041105",1212,3,"m","",3.3663,"ug/L","",23.8634,"sigma-t","",6.72407,"mg/L","",33.0796,"ppt","",,"","",17.7,"C","",8.002,"pH","",,"","",36,"%",
"200411WQPL.csv","2008MAY29155212","1105042782","C5",  32.67917,-117.25667,"20041105",1212,9,"m","",2.3929,"ug/L","",24.0291,"sigma-t","",5.79965,"mg/L","",33.1129,"ppt","",,"","",17.2,"C","",7.993,"pH","",,"","",47,"%",
"200411WQPL.csv","2008MAY29155212","1105042783","C6",  32.69367,-117.26133,"20041105",1205,1,"m","",1.7385,"ug/L","",23.5461,"sigma-t","",6.09087,"mg/L","",32.763,"ppt","",,"","",18.1,"C","",8.018,"pH","",,"","",44,"%",
"200411WQPL.csv","2008MAY29155212","1105042784","C6",  32.69367,-117.26133,"20041105",1205,3,"m","",2.4497,"ug/L","",23.7589,"sigma-t","",6.58,"mg/L","",33.019,"ppt","",,"","",18,"C","",8.018,"pH","",,"","",43,"%",
"200411WQPL.csv","2008MAY29155212","1105042785","C6",  32.69367,-117.26133,"20041105",1205,9,"m","",2.9623,"ug/L","",24.108,"sigma-t","",6.06242,"mg/L","",33.2109,"ppt","",,"","",17.1,"C","",7.999,"pH","",,"","",36,"%",
"200411WQPL.csv","2008MAY29155212","1105042786","C7",  32.71633,-117.27217,"20041105",1101,1,"m","",3.7214,"ug/L","",23.7884,"sigma-t","",8.70619,"mg/L","",33.0843,"ppt","",,"","",18.1,"C","",8.209,"pH","",,"","",84,"%",
"200411WQPL.csv","2008MAY29155212","1105042787","C7",  32.71633,-117.27217,"20041105",1101,12,"m","",3.2239,"ug/L","",24.0483,"sigma-t","",7.00262,"mg/L","",33.1286,"ppt","",,"","",17.1,"C","",8.09,"pH","",,"","",82,"%",
"200411WQPL.csv","2008MAY29155212","1105042788","C7",  32.71633,-117.27217,"20041105",1101,18,"m","",2.166,"ug/L","",24.5171,"sigma-t","",6.38924,"mg/L","",33.1805,"ppt","",,"","",15.2,"C","",8.012,"pH","",,"","",72,"%",
"200411WQPL.csv","2008MAY29155212","1105042789","C8",  32.73267,-117.27333,"20041105",1035,1,"m","",1.8766,"ug/L","",23.8252,"sigma-t","",7.04531,"mg/L","",33.1163,"ppt","",,"","",18,"C","",8.146,"pH","",,"","",86,"%",
"200411WQPL.csv","2008MAY29155212","1105042790","C8",  32.73267,-117.27333,"20041105",1035,12,"m","",2.0633,"ug/L","",23.97,"sigma-t","",7.47404,"mg/L","",33.2207,"ppt","",,"","",17.8,"C","",8.152,"pH","",,"","",91,"%",
"200411WQPL.csv","2008MAY29155212","1105042791","C8",  32.73267,-117.27333,"20041105",1035,18,"m","",3.4613,"ug/L","",24.5665,"sigma-t","",6.81356,"mg/L","",33.2613,"ppt","",,"","",15.3,"C","",8.074,"pH","",,"","",70,"%",
"200411WQPL.csv","2008MAY29155212","1109042792","A1",  32.65933,-117.26200,"20041109",928,1,"m","",3.2049,"ug/L","",23.9785,"sigma-t","",7.23456,"mg/L","",33.0051,"ppt","",,"","",17,"C","",8.125,"pH","",,"","",79,"%",
"200411WQPL.csv","2008MAY29155212","1109042793","A1",  32.65933,-117.26200,"20041109",928,12,"m","",4.3748,"ug/L","",24.0545,"sigma-t","",6.90417,"mg/L","",33.0558,"ppt","",,"","",16.9,"C","",8.121,"pH","",,"","",75,"%",
"200411WQPL.csv","2008MAY29155212","1109042794","A1",  32.65933,-117.26200,"20041109",928,18,"m","",2.9339,"ug/L","",24.2381,"sigma-t","",6.894,"mg/L","",33.1224,"ppt","",,"","",16.3,"C","",8.115,"pH","",,"","",84,"%",
"200411WQPL.csv","2008MAY29155212","1109042795","A6",  32.69267,-117.26967,"20041109",1012,1,"m","",3.3606,"ug/L","",23.9587,"sigma-t","",7.86622,"mg/L","",33.0858,"ppt","",,"","",17.4,"C","",8.161,"pH","",,"","",84,"%",
"200411WQPL.csv","2008MAY29155212","1109042796","A6",  32.69267,-117.26967,"20041109",1012,12,"m","",3.7263,"ug/L","",24.1825,"sigma-t","",7.35488,"mg/L","",33.1373,"ppt","",,"","",16.6,"C","",8.115,"pH","",,"","",88,"%",
"200411WQPL.csv","2008MAY29155212","1109042797","A6",  32.69267,-117.26967,"20041109",1012,18,"m","",2.8998,"ug/L","",24.4551,"sigma-t","",6.95913,"mg/L","",33.1596,"ppt","",,"","",15.5,"C","",8.068,"pH","",,"","",88,"%",
"200411WQPL.csv","2008MAY29155212","1109042798","A7",  32.67550,-117.26683,"20041109",954,1,"m","",3.2142,"ug/L","",23.9409,"sigma-t","",7.85301,"mg/L","",33.053,"ppt","",,"","",17.3,"C","",8.144,"pH","",,"","",84,"%",
"200411WQPL.csv","2008MAY29155212","1109042799","A7",  32.67550,-117.26683,"20041109",954,12,"m","",3.3793,"ug/L","",24.2845,"sigma-t","",6.86777,"mg/L","",33.1244,"ppt","",,"","",16.1,"C","",8.068,"pH","",,"","",85,"%",
"200411WQPL.csv","2008MAY29155212","1109042800","A7",  32.67550,-117.26683,"20041109",954,18,"m","",3.1388,"ug/L","",24.3026,"sigma-t","",6.78642,"mg/L","",33.1167,"ppt","",,"","",16,"C","",8.061,"pH","",,"","",85,"%",
"200411WQPL.csv","2008MAY29155212","1109042801","C4",  32.66583,-117.24967,"20041109",1127,1,"m","",2.1277,"ug/L","",23.7922,"sigma-t","",6.46114,"mg/L","",33.0078,"ppt","",,"","",17.8,"C","",7.97,"pH","",,"","",53,"%",
"200411WQPL.csv","2008MAY29155212","1109042802","C4",  32.66583,-117.24967,"20041109",1127,3,"m","",3.3513,"ug/L","",23.9443,"sigma-t","",6.61126,"mg/L","",32.9959,"ppt","",,"","",17.1,"C","",8.041,"pH","",,"","",53,"%",
"200411WQPL.csv","2008MAY29155212","1109042803","C4",  32.66583,-117.24967,"20041109",1127,9,"m","",2.6996,"ug/L","",24.1124,"sigma-t","",6.70811,"mg/L","",33.0901,"ppt","",,"","",16.7,"C","",8.08,"pH","",,"","",76,"%",
"200411WQPL.csv","2008MAY29155212","1109042804","C5",  32.67917,-117.25667,"20041109",1113,1,"m","",1.8242,"ug/L","",23.7701,"sigma-t","",6.18858,"mg/L","",33.01,"ppt","",,"","",17.9,"C","",8.05,"pH","",,"","",63,"%",
"200411WQPL.csv","2008MAY29155212","1109042805","C5",  32.67917,-117.25667,"20041109",1113,3,"m","",2.1645,"ug/L","",23.9538,"sigma-t","",6.87755,"mg/L","",33.1023,"ppt","",,"","",17.4,"C","",8.012,"pH","",,"","",59,"%",
"200411WQPL.csv","2008MAY29155212","1109042806","C5",  32.67917,-117.25667,"20041109",1113,9,"m","",3.5875,"ug/L","",23.9991,"sigma-t","",5.33624,"mg/L","",33.0713,"ppt","",,"","",17.2,"C","",7.936,"pH","",,"","",66,"%",
"200411WQPL.csv","2008MAY29155212","1109042807","C6",  32.69367,-117.26133,"20041109",1102,1,"m","",4.9915,"ug/L","",23.8465,"sigma-t","",6.63693,"mg/L","",33.0638,"ppt","",,"","",17.8,"C","",7.992,"pH","",,"","",68,"%",
"200411WQPL.csv","2008MAY29155212","1109042808","C6",  32.69367,-117.26133,"20041109",1102,3,"m","",5.8853,"ug/L","",23.9292,"sigma-t","",6.51778,"mg/L","",33.0832,"ppt","",,"","",17.5,"C","",7.978,"pH","",,"","",67,"%",
"200411WQPL.csv","2008MAY29155212","1109042809","C6",  32.69367,-117.26133,"20041109",1102,9,"m","",2.3992,"ug/L","",24.0035,"sigma-t","",5.46216,"mg/L","",33.0903,"ppt","",,"","",17.2,"C","",7.95,"pH","",,"","",77,"%",
"200411WQPL.csv","2008MAY29155212","1109042810","C7",  32.71633,-117.27217,"20041109",1030,1,"m","",2.2913,"ug/L","",23.951,"sigma-t","",7.7413,"mg/L","",33.1599,"ppt","",,"","",17.6,"C","",8.176,"pH","",,"","",88,"%",
"200411WQPL.csv","2008MAY29155212","1109042811","C7",  32.71633,-117.27217,"20041109",1030,12,"m","",2.3189,"ug/L","",24.155,"sigma-t","",6.41832,"mg/L","",33.1878,"ppt","",,"","",16.9,"C","",8.064,"pH","",,"","",89,"%",
"200411WQPL.csv","2008MAY29155212","1109042812","C7",  32.71633,-117.27217,"20041109",1030,18,"m","",2.0013,"ug/L","",24.6267,"sigma-t","",6.42652,"mg/L","",33.1789,"ppt","",,"","",14.7,"C","",8.022,"pH","",,"","",88,"%",
"200411WQPL.csv","2008MAY29155212","1109042813","C8",  32.73267,-117.27333,"20041109",1044,1,"m","",1.8461,"ug/L","",23.893,"sigma-t","",8.01936,"mg/L","",33.1512,"ppt","",,"","",17.9,"C","",8.187,"pH","",,"","",87,"%",
"200411WQPL.csv","2008MAY29155212","1109042814","C8",  32.73267,-117.27333,"20041109",1044,12,"m","",2.3802,"ug/L","",23.9656,"sigma-t","",7.56591,"mg/L","",33.1684,"ppt","",,"","",17.6,"C","",8.161,"pH","",,"","",90,"%",
"200411WQPL.csv","2008MAY29155212","1109042815","C8",  32.73267,-117.27333,"20041109",1044,18,"m","",2.1254,"ug/L","",24.6515,"sigma-t","",6.68036,"mg/L","",33.2747,"ppt","",,"","",15.3,"C","",8.048,"pH","",,"","",88,"%",
"200411WQPL.csv","2008MAY29155212","1117042826","A1",  32.65933,-117.26200,"20041117",1020,1,"m","",3.9903,"ug/L","",24.4498,"sigma-t","",8.15553,"mg/L","",33.1714,"ppt","",,"","",15.5,"C","",8.145,"pH","",,"","",78,"%",
"200411WQPL.csv","2008MAY29155212","1117042827","A1",  32.65933,-117.26200,"20041117",1020,12,"m","",4.6189,"ug/L","",25.1945,"sigma-t","",5.74406,"mg/L","",33.5599,"ppt","",,"","",13.4,"C","",8.003,"pH","",,"","",84,"%",
"200411WQPL.csv","2008MAY29155212","1117042828","A1",  32.65933,-117.26200,"20041117",1020,18,"m","",3.7618,"ug/L","",25.786,"sigma-t","",5.92467,"mg/L","",34.1339,"ppt","",,"","",12.7,"C","",7.955,"pH","",,"","",78,"%",
"200411WQPL.csv","2008MAY29155212","1117042829","A6",  32.69267,-117.26967,"20041117",1121,1,"m","",2.198,"ug/L","",24.0871,"sigma-t","",7.72152,"mg/L","",33.1991,"ppt","",,"","",17.2,"C","",8.187,"pH","",,"","",87,"%",
"200411WQPL.csv","2008MAY29155212","1117042830","A6",  32.69267,-117.26967,"20041117",1121,12,"m","",4.7612,"ug/L","",24.2625,"sigma-t","",7.63771,"mg/L","",33.189,"ppt","",,"","",16.4,"C","",8.17,"pH","",,"","",86,"%",
"200411WQPL.csv","2008MAY29155212","1117042831","A6",  32.69267,-117.26967,"20041117",1121,18,"m","",3.2127,"ug/L","",24.7697,"sigma-t","",6.89533,"mg/L","",33.2805,"ppt","",,"","",14.4,"C","",8.092,"pH","",,"","",81,"%",
"200411WQPL.csv","2008MAY29155212","1117042832","A7",  32.67550,-117.26683,"20041117",1057,1,"m","",3.6745,"ug/L","",24.2774,"sigma-t","",7.94921,"mg/L","",33.1767,"ppt","",,"","",16.3,"C","",8.167,"pH","",,"","",85,"%",
"200411WQPL.csv","2008MAY29155212","1117042833","A7",  32.67550,-117.26683,"20041117",1057,12,"m","",3.0085,"ug/L","",24.8433,"sigma-t","",6.45416,"mg/L","",33.2501,"ppt","",,"","",14,"C","",8.024,"pH","",,"","",85,"%",
"200411WQPL.csv","2008MAY29155212","1117042834","A7",  32.67550,-117.26683,"20041117",1057,18,"m","",3.1569,"ug/L","",25.161,"sigma-t","",6.00198,"mg/L","",33.2863,"ppt","",,"","",12.5,"C","",7.979,"pH","",,"","",83,"%",
"200411WQPL.csv","2008MAY29155212","1117042835","C4",  32.66583,-117.24967,"20041117",1240,1,"m","",3.2213,"ug/L","",24.3267,"sigma-t","",7.77148,"mg/L","",33.1449,"ppt","",,"","",16,"C","",8.092,"pH","",,"","",80,"%",
"200411WQPL.csv","2008MAY29155212","1117042836","C4",  32.66583,-117.24967,"20041117",1240,3,"m","",3.617,"ug/L","",24.3454,"sigma-t","",7.8556,"mg/L","",33.1475,"ppt","",,"","",15.9,"C","",8.093,"pH","",,"","",80,"%",
"200411WQPL.csv","2008MAY29155212","1117042837","C4",  32.66583,-117.24967,"20041117",1240,9,"m","",5.881,"ug/L","",24.4723,"sigma-t","",7.54704,"mg/L","",33.1761,"ppt","",,"","",15.4,"C","",8.108,"pH","",,"","",80,"%",
"200411WQPL.csv","2008MAY29155212","1117042838","C5",  32.67917,-117.25667,"20041117",1226,1,"m","",4.3277,"ug/L","",24.1828,"sigma-t","",8.18934,"mg/L","",33.1573,"ppt","",,"","",16.6,"C","",8.191,"pH","",,"","",79,"%",
"200411WQPL.csv","2008MAY29155212","1117042839","C5",  32.67917,-117.25667,"20041117",1226,3,"m","",4.4952,"ug/L","",24.2124,"sigma-t","",8.12286,"mg/L","",33.1667,"ppt","",,"","",16.5,"C","",8.169,"pH","",,"","",76,"%",
"200411WQPL.csv","2008MAY29155212","1117042840","C5",  32.67917,-117.25667,"20041117",1226,9,"m","",3.4029,"ug/L","",24.5236,"sigma-t","",6.65481,"mg/L","",33.1934,"ppt","",,"","",15.3,"C","",8.079,"pH","",,"","",81,"%",
"200411WQPL.csv","2008MAY29155212","1117042841","C6",  32.69367,-117.26133,"20041117",1212,1,"m","",3.2505,"ug/L","",24.236,"sigma-t","",7.92853,"mg/L","",33.1755,"ppt","",,"","",16.5,"C","",8.189,"pH","",,"","",82,"%",
"200411WQPL.csv","2008MAY29155212","1117042842","C6",  32.69367,-117.26133,"20041117",1212,3,"m","",3.6083,"ug/L","",24.3094,"sigma-t","",7.67678,"mg/L","",33.1746,"ppt","",,"","",16.2,"C","",8.163,"pH","",,"","",81,"%",
"200411WQPL.csv","2008MAY29155212","1117042843","C6",  32.69367,-117.26133,"20041117",1212,9,"m","",3.7801,"ug/L","",24.4684,"sigma-t","",6.54365,"mg/L","",33.2142,"ppt","",,"","",15.6,"C","",8.109,"pH","",,"","",78,"%",
"200411WQPL.csv","2008MAY29155212","1117042844","C7",  32.71633,-117.27217,"20041117",1139,1,"m","",2.8682,"ug/L","",24.2027,"sigma-t","",7.67874,"mg/L","",33.1811,"ppt","",,"","",16.6,"C","",8.173,"pH","",,"","",84,"%",
"200411WQPL.csv","2008MAY29155212","1117042845","C7",  32.71633,-117.27217,"20041117",1139,12,"m","",3.9048,"ug/L","",24.3553,"sigma-t","",6.88353,"mg/L","",33.1838,"ppt","",,"","",16,"C","",8.066,"pH","",,"","",81,"%",
"200411WQPL.csv","2008MAY29155212","1117042846","C7",  32.71633,-117.27217,"20041117",1139,18,"m","",2.3564,"ug/L","",24.9628,"sigma-t","",5.97405,"mg/L","",33.2493,"ppt","",,"","",13.4,"C","",7.99,"pH","",,"","",86,"%",
"200411WQPL.csv","2008MAY29155212","1117042847","C8",  32.73267,-117.27333,"20041117",1153,1,"m","",2.3776,"ug/L","",24.1962,"sigma-t","",8.4031,"mg/L","",33.1634,"ppt","",,"","",16.6,"C","",8.205,"pH","",,"","",84,"%",
"200411WQPL.csv","2008MAY29155212","1117042848","C8",  32.73267,-117.27333,"20041117",1153,12,"m","",5.2031,"ug/L","",24.3914,"sigma-t","",7.78816,"mg/L","",33.2087,"ppt","",,"","",15.9,"C","",8.176,"pH","",,"","",84,"%",
"200411WQPL.csv","2008MAY29155212","1117042849","C8",  32.73267,-117.27333,"20041117",1153,18,"m","",3.0981,"ug/L","",24.9848,"sigma-t","",6.28061,"mg/L","",33.2544,"ppt","",,"","",13.3,"C","",8.008,"pH","",,"","",86,"%",
"200411WQPL.csv","2008MAY29155212","1123042866","A1",  32.65933,-117.26200,"20041123",955,1,"m","",2.4256,"ug/L","",24.3525,"sigma-t","",7.92769,"mg/L","",33.1828,"ppt","",,"","",16,"C","",8.164,"pH","",,"","",83,"%",
"200411WQPL.csv","2008MAY29155212","1123042867","A1",  32.65933,-117.26200,"20041123",955,12,"m","",2.8629,"ug/L","",24.3821,"sigma-t","",7.36079,"mg/L","",33.1835,"ppt","",,"","",15.9,"C","",8.134,"pH","",,"","",84,"%",
"200411WQPL.csv","2008MAY29155212","1123042868","A1",  32.65933,-117.26200,"20041123",955,18,"m","",2.4303,"ug/L","",24.8465,"sigma-t","",6.72426,"mg/L","",33.2926,"ppt","",,"","",14.1,"C","",8.072,"pH","",,"","",82,"%",
"200411WQPL.csv","2008MAY29155212","1123042869","A6",  32.69267,-117.26967,"20041123",1103,1,"m","",1.8193,"ug/L","",24.3916,"sigma-t","",7.78006,"mg/L","",33.187,"ppt","",,"","",15.8,"C","",8.144,"pH","",,"","",86,"%",
"200411WQPL.csv","2008MAY29155212","1123042870","A6",  32.69267,-117.26967,"20041123",1103,12,"m","",4.8565,"ug/L","",24.4238,"sigma-t","",7.68022,"mg/L","",33.189,"ppt","",,"","",15.7,"C","",8.142,"pH","",,"","",86,"%",
"200411WQPL.csv","2008MAY29155212","1123042871","A6",  32.69267,-117.26967,"20041123",1103,18,"m","",2.1343,"ug/L","",24.6784,"sigma-t","",6.9549,"mg/L","",33.1962,"ppt","",,"","",14.5,"C","",8.06,"pH","",,"","",87,"%",
"200411WQPL.csv","2008MAY29155212","1123042872","A7",  32.67550,-117.26683,"20041123",1030,1,"m","",.7787,"ug/L","",24.4038,"sigma-t","",5.89212,"mg/L","",33.193,"ppt","",,"","",15.8,"C","",8.03,"pH","",,"","",73,"%",
"200411WQPL.csv","2008MAY29155212","1123042873","A7",  32.67550,-117.26683,"20041123",1030,12,"m","",2.1051,"ug/L","",24.4529,"sigma-t","",7.12306,"mg/L","",33.1999,"ppt","",,"","",15.6,"C","",8.103,"pH","",,"","",79,"%",
"200411WQPL.csv","2008MAY29155212","1123042874","A7",  32.67550,-117.26683,"20041123",1030,18,"m","",1.7903,"ug/L","",24.7323,"sigma-t","",6.45797,"mg/L","",33.2722,"ppt","",,"","",14.6,"C","",8.067,"pH","",,"","",85,"%",
"200411WQPL.csv","2008MAY29155212","1123042875","C4",  32.66583,-117.24967,"20041123",1231,1,"m","",.6576,"ug/L","",24.3109,"sigma-t","",7.15445,"mg/L","",33.1785,"ppt","",,"","",16.2,"C","",8.14,"pH","",,"","",84,"%",
"200411WQPL.csv","2008MAY29155212","1123042876","C4",  32.66583,-117.24967,"20041123",1231,3,"m","",.7673,"ug/L","",24.3598,"sigma-t","",7.13055,"mg/L","",33.2131,"ppt","",,"","",16.1,"C","",8.141,"pH","",,"","",83,"%",
"200411WQPL.csv","2008MAY29155212","1123042877","C4",  32.66583,-117.24967,"20041123",1231,9,"m","",3.3462,"ug/L","",24.357,"sigma-t","",7.26192,"mg/L","",33.1891,"ppt","",,"","",16,"C","",8.15,"pH","",,"","",83,"%",
"200411WQPL.csv","2008MAY29155212","1123042878","C5",  32.67917,-117.25667,"20041123",1220,1,"m","",1.769,"ug/L","",24.3806,"sigma-t","",7.2739,"mg/L","",33.2184,"ppt","",,"","",16,"C","",8.053,"pH","",,"","",55,"%",
"200411WQPL.csv","2008MAY29155212","1123042879","C5",  32.67917,-117.25667,"20041123",1220,3,"m","",1.5875,"ug/L","",24.44,"sigma-t","",6.81546,"mg/L","",33.2426,"ppt","",,"","",15.8,"C","",7.994,"pH","",,"","",54,"%",
"200411WQPL.csv","2008MAY29155212","1123042880","C5",  32.67917,-117.25667,"20041123",1220,9,"m","",3.1674,"ug/L","",24.4866,"sigma-t","",6.69243,"mg/L","",33.1998,"ppt","",,"","",15.4,"C","",8.009,"pH","",,"","",14,"%",
"200411WQPL.csv","2008MAY29155212","1123042881","C6",  32.69367,-117.26133,"20041123",1206,1,"m","",.6802,"ug/L","",24.3725,"sigma-t","",7.06284,"mg/L","",33.2045,"ppt","",,"","",16,"C","",8.083,"pH","",,"","",82,"%",
"200411WQPL.csv","2008MAY29155212","1123042882","C6",  32.69367,-117.26133,"20041123",1206,3,"m","",.8738,"ug/L","",24.3813,"sigma-t","",7.0945,"mg/L","",33.202,"ppt","",,"","",15.9,"C","",8.085,"pH","",,"","",82,"%",
"200411WQPL.csv","2008MAY29155212","1123042883","C6",  32.69367,-117.26133,"20041123",1206,9,"m","",.9956,"ug/L","",24.5611,"sigma-t","",6.90969,"mg/L","",33.2093,"ppt","",,"","",15.1,"C","",8.076,"pH","",,"","",82,"%",
"200411WQPL.csv","2008MAY29155212","1123042884","C7",  32.71633,-117.27217,"20041123",1131,1,"m","",2.9043,"ug/L","",24.3245,"sigma-t","",9.57422,"mg/L","",33.206,"ppt","",,"","",16.2,"C","",8.24,"pH","",,"","",86,"%",
"200411WQPL.csv","2008MAY29155212","1123042885","C7",  32.71633,-117.27217,"20041123",1131,12,"m","",4.0759,"ug/L","",24.4381,"sigma-t","",7.69615,"mg/L","",33.2044,"ppt","",,"","",15.7,"C","",8.121,"pH","",,"","",87,"%",
"200411WQPL.csv","2008MAY29155212","1123042886","C7",  32.71633,-117.27217,"20041123",1131,18,"m","",1.4932,"ug/L","",24.7704,"sigma-t","",6.42069,"mg/L","",33.1939,"ppt","",,"","",14.1,"C","",7.99,"pH","",,"","",87,"%",
"200411WQPL.csv","2008MAY29155212","1123042887","C8",  32.73267,-117.27333,"20041123",1143,1,"m","",1.6803,"ug/L","",24.3558,"sigma-t","",8.08758,"mg/L","",33.2029,"ppt","",,"","",16,"C","",8.183,"pH","",,"","",85,"%",
"200411WQPL.csv","2008MAY29155212","1123042888","C8",  32.73267,-117.27333,"20041123",1143,12,"m","",5.898,"ug/L","",24.4757,"sigma-t","",7.55056,"mg/L","",33.1784,"ppt","",,"","",15.4,"C","",8.126,"pH","",,"","",86,"%",
"200411WQPL.csv","2008MAY29155212","1123042889","C8",  32.73267,-117.27333,"20041123",1143,18,"m","",3.1014,"ug/L","",24.6436,"sigma-t","",6.93135,"mg/L","",33.1882,"ppt","",,"","",14.7,"C","",8.074,"pH","",,"","",85,"%",
"200411WQPL.csv","2008MAY29155212","1128042906","A1",  32.65933,-117.26200,"20041128",907,1,"m","",1.7096,"ug/L","",24.4985,"sigma-t","",7.44006,"mg/L","",33.1929,"ppt","",,"","",15.4,"C","",8.127,"pH","",,"","",87,"%",
"200411WQPL.csv","2008MAY29155212","1128042907","A1",  32.65933,-117.26200,"20041128",907,12,"m","",2.9642,"ug/L","",24.5029,"sigma-t","",7.45821,"mg/L","",33.1915,"ppt","",,"","",15.3,"C","",8.135,"pH","",,"","",87,"%",
"200411WQPL.csv","2008MAY29155212","1128042908","A1",  32.65933,-117.26200,"20041128",907,18,"m","",3.1778,"ug/L","",24.5421,"sigma-t","",7.6773,"mg/L","",33.1955,"ppt","",,"","",15.2,"C","",8.134,"pH","",,"","",88,"%",
"200411WQPL.csv","2008MAY29155212","1128042909","A6",  32.69267,-117.26967,"20041128",1022,1,"m","",1.3879,"ug/L","",24.4267,"sigma-t","",7.9098,"mg/L","",33.207,"ppt","",,"","",15.7,"C","",8.184,"pH","",,"","",85,"%",
"200411WQPL.csv","2008MAY29155212","1128042910","A6",  32.69267,-117.26967,"20041128",1022,12,"m","",1.9045,"ug/L","",24.6797,"sigma-t","",7.1164,"mg/L","",33.2139,"ppt","",,"","",14.6,"C","",8.103,"pH","",,"","",86,"%",
"200411WQPL.csv","2008MAY29155212","1128042911","A6",  32.69267,-117.26967,"20041128",1022,18,"m","",1.4037,"ug/L","",24.8646,"sigma-t","",6.58185,"mg/L","",33.1814,"ppt","",,"","",13.6,"C","",8.039,"pH","",,"","",84,"%",
"200411WQPL.csv","2008MAY29155212","1128042912","A7",  32.67550,-117.26683,"20041128",950,1,"m","",1.7046,"ug/L","",24.4387,"sigma-t","",7.63859,"mg/L","",33.1948,"ppt","",,"","",15.6,"C","",8.149,"pH","",,"","",78,"%",
"200411WQPL.csv","2008MAY29155212","1128042913","A7",  32.67550,-117.26683,"20041128",950,12,"m","",4.0024,"ug/L","",24.6232,"sigma-t","",7.43698,"mg/L","",33.1614,"ppt","",,"","",14.7,"C","",8.111,"pH","",,"","",87,"%",
"200411WQPL.csv","2008MAY29155212","1128042914","A7",  32.67550,-117.26683,"20041128",950,18,"m","",3.3,"ug/L","",24.732,"sigma-t","",7.15184,"mg/L","",33.1606,"ppt","",,"","",14.2,"C","",8.079,"pH","",,"","",88,"%",
"200411WQPL.csv","2008MAY29155212","1128042915","C4",  32.66583,-117.24967,"20041128",1153,1,"m","",3.065,"ug/L","",24.4313,"sigma-t","",7.12046,"mg/L","",33.1855,"ppt","",,"","",15.6,"C","",8.089,"pH","",,"","",33,"%",